Location: Luz Observatory
(34.5000°N, 117.2833°W)
Time: 04:11:44
(UTC-07:00)

Daily predictions for brighter satellites

Satellite Brightness Start Highest point End
(mag) Time Altitude Azimuth Time Altitude Azimuth Time Altitude Azimuth
Milstar 3 4.2 03:41:00 30° ESE 03:41:00 30° ESE 03:44:30 10° E
Cosmos 1943 Rocket 4.3 03:47:33 20° NE 03:47:33 20° NE 03:49:13 10° NNE
USA 229 DEB 4.4 03:55:40 47° E 03:55:40 47° E 04:01:15 10° NE
USA 229 4.4 03:55:43 47° E 03:55:43 47° E 04:01:19 10° NE
ADEOS II 4.1 03:58:29 10° NNE 04:00:18 21° NNE 04:00:18 21° NNE
Cosmos 2184 Rocket 4.5 04:05:53 10° N 04:12:01 56° E 04:18:04 10° SSE
USA 267 3.4 04:07:36 10° SE 04:13:28 70° E 04:13:28 70° E
Cosmos 2369 Rocket 4.2 04:25:18 18° N 04:25:18 18° N 04:26:48 10° N
Cosmos 1937 Rocket 4.5 04:27:32 41° NNE 04:27:32 41° NNE 04:31:01 10° NNE
CZ-3 R/B 3.8 04:23:59 42° W 04:35:40 65° SSW 04:45:26 10° ESE
Cosmos 44 4.3 04:39:52 39° NNE 04:40:38 43° ENE 04:45:14 10° SE
CZ-4C R/B 3.4 04:36:58 14° NNW 04:43:20 60° ENE 04:51:15 10° SE
Nadezhda 1 Rocket 3.9 04:45:40 51° SSW 04:47:25 81° W 04:53:50 10° N
Cosmos 1242 Rocket 4.2 04:49:33 31° ESE 04:49:33 31° ESE 04:52:00 10° SSE
Cosmos 990 Rocket 4.4 04:51:00 51° N 04:51:00 51° N 04:54:57 10° NNE
Cosmos 2074 Rocket 4.4 04:45:46 10° NNW 04:53:55 44° SSW 04:58:11 10° S
Cosmos 1378 4.2 04:54:17 44° ENE 04:54:17 44° ENE 04:57:25 10° NNE
Cosmos 44 Rocket 3.7 04:56:14 37° N 04:57:59 62° ENE 05:02:52 10° SE
PAYLOAD B 4.1 04:53:50 10° NNE 04:59:21 86° ESE 05:04:18 13° SSW
Okean O Rocket 1.8 04:57:03 10° N 05:00:41 60° N 05:00:41 60° N
GPS 2-04 Rocket1 3.0 05:05:03 59° E 05:05:03 59° E 05:08:06 10° E
CZ-4B DEB 4.1 05:03:55 10° N 05:09:25 81° WNW 05:14:56 10° SSW
Cosmos 1656 Rocket 3.6 05:10:28 43° SW 05:12:16 66° WNW 05:17:55 10° NNE
Cosmos 1758 Rocket 3.4 05:13:26 46° SSW 05:14:41 72° W 05:19:11 10° N
APEX 4.1 05:15:49 16° N 05:18:41 54° ENE 05:23:20 10° SE
Cosmos 2154 Rocket 3.9 05:15:02 10° N 05:21:21 73° W 05:27:36 10° S
Cosmos-2242 3.8 05:19:53 10° N 05:24:05 53° E 05:28:17 10° SSE
CZ-4B R/B 3.2 05:21:18 10° N 05:26:41 62° WNW 05:32:08 10° SSW
Cosmos 1943 Rocket 3.7 05:29:08 19° NW 05:29:08 19° NW 05:31:55 10° N
Meteor 1-28 Rocket 4.3 05:26:52 10° SSE 05:30:29 45° ENE 05:34:09 10° N
BREEZE-M DEB 4.3 05:33:16 56° W 05:33:42 65° SW 05:37:54 10° SE
BREEZE-M DEB (TANK) 3.7 05:38:01 26° NW 05:39:34 34° NNW 05:48:08 10° NE
Meteor PRIRODA 4.0 05:37:24 10° N 05:40:57 41° WNW 05:42:35 26° SW
Cosmos 1356 4.5 05:38:29 10° S 05:41:50 48° E 05:45:12 10° NNE
ADEOS II 3.8 05:39:37 10° NNW 05:41:14 15° NW 05:41:14 15° NW
NOSS 3-1 (C) 3.4 05:40:43 18° SW 05:44:45 53° NW 05:50:52 10° NNE
Intercosmos 24 4.4 05:43:02 10° N 05:47:40 62° E 05:51:18 10° SSE
OAO 2 Rocket 3.2 05:46:09 25° W 05:49:06 89° N 05:54:03 10° E
NOSS 3-1 (A) 3.3 05:44:05 10° SW 05:49:42 70° WNW 05:55:58 10° NNE
Cosmos 1470 3.7 05:50:07 25° W 05:50:07 25° W 05:53:01 10° SSW
Meteor 2-21 4.3 05:45:35 10° N 05:51:38 76° W 05:57:42 10° S
Meteor 1-24 Rocket 3.9 05:48:16 10° S 05:54:18 89° W 06:00:19 10° N
USA 267 4.3 05:52:25 10° S 05:57:27 23° WSW 06:00:51 16° W
IDEFIX/ARIANE 42P 3.6 05:52:27 10° NNE 05:57:32 49° E 06:02:33 10° S
Cosmos 2218 Rocket 4.2 05:52:32 10° N 05:58:47 80° E 06:05:07 10° S
Cosmos 468 4.5 05:56:16 10° NNW 06:01:35 81° WSW 06:06:53 10° SSE
Meteor 1-31 Rocket 3.7 05:58:38 10° NNW 06:01:51 26° WNW 06:05:04 10° SW
Tiangong 2 1.9 06:00:07 16° NW 06:02:24 47° NNE 06:05:30 10° E
Feng Yun 1-1 Rocket 4.2 05:59:51 10° N 06:05:26 72° WNW 06:11:10 10° SSW
Cosmos 1674 4.2 06:02:28 10° SSE 06:05:58 40° E 06:09:29 10° NNE
Cosmos 372 Rocket 4.1 06:04:21 10° SW 06:09:23 51° WNW 06:14:29 10° N
Cosmos 2341 Rocket 4.4 06:04:10 10° NNW 06:10:05 41° W 06:15:58 10° SSW
Cosmos 2181 Rocket 4.4 06:04:19 10° SSW 06:10:10 40° W 06:15:57 10° N
Cosmos 2227 Rocket 3.9 06:05:26 10° N 06:10:33 34° ENE 06:15:38 10° SE
SJ 16-02 1.6 06:07:05 10° SW 06:11:19 47° WNW 06:15:35 10° N
Cosmos 1707 4.4 06:11:51 14° WNW 06:12:03 14° WNW 06:14:09 10° NW
Cosmos 1125 Rocket 3.9 06:10:19 10° SW 06:15:13 40° WNW 06:20:12 10° N
Meteor 2-14 Rocket 4.4 06:10:04 10° NNW 06:16:02 61° W 06:21:58 10° S
NOAA 6 4.1 06:12:39 10° N 06:17:42 57° WNW 06:22:43 10° SSW
PAYLOAD A 3.8 06:14:32 10° NNE 06:19:16 88° WNW 06:24:07 10° SSW
Meteor 2-16 Rocket 4.4 06:13:26 10° NNW 06:19:32 69° W 06:25:37 10° S
SKYMED 2 3.5 06:15:33 10° S 06:19:52 74° WSW 06:24:13 10° NNW
Milstar 3 3.7 06:14:35 10° W 06:20:50 44° S 06:29:39 10° ESE
ERBS 4.0 06:21:44 10° NNW 06:24:52 32° NE 06:28:00 10° ESE
SL-08 R/B 4.5 06:23:38 10° NNW 06:29:45 68° W 06:35:57 10° S
CZ-4C R/B 3.8 06:25:25 10° NW 06:31:41 28° WSW 06:38:16 10° SSW
Shenzhou-11 Module 2.6 06:28:52 10° WNW 06:31:47 41° SSW 06:34:39 10° SE
EO 1 Del DPAF 4.0 06:29:19 10° SSW 06:32:44 32° W 06:36:12 10° NW
CZ-4 R/B 4.4 06:30:40 10° NE 06:33:46 22° E 06:36:49 10° SSE
Cosmos 1726 4.5 06:31:30 10° NNE 06:34:43 28° E 06:37:55 10° SE
Cosmos 1908 3.5 06:30:59 10° N 06:34:50 73° E 06:38:37 10° SSE
Cosmos 2219 3.4 06:29:43 10° NNW 06:35:09 49° WSW 06:40:31 10° S
